Miscellaneous Local Product
Issued by NWS North Platte, NE

Home | Current Version | Previous Version | Text Only | Print | Product List | Glossary Off
Versions: 1 2 3 4 5 6 7 8 9 10 11 12 13 14 15 16 17 18 19 20 21 22 23 24 25 26 27 28 29 30 31 32 33 34 35 36 37 38 39 40 41 42 43 44 45 46 47 48 49 50

202
AXUS43 KLBF 250310
MISLBF


WESTERN AND NORTH CENTRAL NEBRASKA HOURLY WEATHER ROUNDUP
NATIONAL WEATHER SERVICE NORTH PLATTE NE
1000 PM CDT TUE APR 24 2018

NOTE: "FAIR" INDICATES FEW OR NO CLOUDS BELOW 12,000 FEET WITH NO
SIGNIFICANT WEATHER AND/OR OBSTRUCTIONS TO VISIBILITY.

NOTE: STATIONS NOT REPORTING VARIABLES SUCH AS SKY/WEATHER OR
PRESSURE ARE PROVIDED BY RAWS AND APRS NETWORKS AND ARE NOT UNDER
NATIONAL WEATHER SERVICE QUALITY CONTROL.

...OBSERVATIONS IN AND NEAR THE EASTERN PANHANDLE OF NEBRASKA...

CITY           SKY/WX    TMP DP  RH WIND       PRES   REMARKS
PINE RIDGE     CLOUDY    38  31  76 S3        30.41R
GORDON         CLOUDY    37  31  78 W6        30.40S WCI  33
CHADRON        CLOUDY    37  29  72 E7        30.42R WCI  32
ALLIANCE       CLOUDY    31  29  92 CALM      30.41R
SIDNEY         MOCLDY    34  29  82 N10       30.42R WCI  26
CRESCENT LAKE    N/A     35  29  80 N6          N/A  WCI  30
$$

...OBSERVATIONS IN NORTHERN NEBRASKA AND FAR SOUTHERN SOUTH DAKOTA...

CITY           SKY/WX    TMP DP  RH WIND       PRES   REMARKS
WINNER         CLOUDY    41  36  82 W7        30.38R
VALENTINE      CLOUDY    38  34  85 NW7       30.38S WCI  33
AINSWORTH      CLOUDY    37  36  96 CALM      30.38R
O`NEILL        CLOUDY    42  40  93 N10       30.34R
THEDFORD       CLOUDY    36  34  94 N12       30.39R WCI  28
BROKEN BOW     CLOUDY    38  35  89 N17G30    30.34R WCI  28
ORD            CLOUDY    40  39  97 N21G29    30.32R WCI  30
ALBION         RAIN      43  42  94 N17       30.29R
VALENTINE NWR    N/A     35  33  94 NW9G17      N/A  WCI  28
HALSEY           N/A     34  34 100 N9G20       N/A  WCI  27
BUTTE            N/A     39  37  91 NW7         N/A  WCI  34
CHAMBERS         N/A     39  38  97 N6          N/A  WCI  35
EWING            N/A     41  39  93 N5G12       N/A
$$

...OBSERVATIONS IN SOUTHWEST NEBRASKA AND FAR NORTHEAST COLORADO...

CITY           SKY/WX    TMP DP  RH WIND       PRES   REMARKS
WRAY           CLOUDY    39  32  75 N13       30.41R WCI  32
HOLYOKE        CLOUDY    41  32  70 N13       30.41R
IMPERIAL       CLOUDY    38  32  79 NW16      30.40R WCI  29
OGALLALA       DRIZZLE   38  33  80 N12G18    30.41R WCI  31
NORTH PLATTE   CLOUDY    38  33  82 N14G23    30.39R WCI  30
MCCOOK         CLOUDY    40  35  83 N14       30.37R WCI  32
LEXINGTON      CLOUDY    40  36  84 N18       30.34R WCI  31
STAPLETON        N/A     35  33  93 N3G12       N/A
GOTHENBURG       N/A     38  33  82 NW12        N/A  WCI  30
CALLAWAY         N/A     37  35  93 N16         N/A  WCI  27
$$

...OBSERVATIONS IN CENTRAL LINCOLN COUNTY AREA...

CITY           SKY/WX    TMP DP  RH WIND       PRES   REMARKS
N.P. AIRPORT   CLOUDY    38  33  82 N14G23    30.39R WCI  30
N.P. DOWNTOWN    N/A     37  33  87 N5G13       N/A  WCI  33
N.P. SOUTHEAST   N/A     36  31  83 N8G15       N/A  WCI  30
N.P. HILLCREST   N/A     36  33  88 NW16G24     N/A  WCI  26
$$

...OBSERVATIONS ACROSS THE ROCKIES AND WESTERN HIGH PLAINS...

CITY           SKY/WX    TMP DP  RH WIND       PRES   REMARKS
RAPID CITY     CLEAR     34  24  67 N6        30.40S WCI  29
SCOTTSBLUFF    CLEAR     36  30  79 CALM      30.43R
CHEYENNE       MOCLDY    33  26  75 N8        30.41R WCI  26
DENVER         CLOUDY    38  31  76 NW8       30.43R WCI  32
BERTHOUD PASS  CLOUDY    18   7  62 NW16G25   30.36S WCI   3
MONARCH PASS   FOG       23  21  93 NW5       30.48R VSB 1/2 WCI  17
ASPEN          PTCLDY    41  16  36 W6        30.29R
STEAMBOAT      FAIR      38  22  52 SE5       30.33R WCI  35
LARAMIE        CLOUDY    31  22  69 N9        30.39R WCI  23
CASPER         CLEAR     30  23  75 SW3       30.42R
$$

...OBSERVATIONS ACROSS THE NORTHERN PLAINS...

CITY           SKY/WX    TMP DP  RH WIND       PRES   REMARKS
BISMARCK       CLEAR     49  24  37 CALM      30.35S
FARGO          FAIR      41  28  60 N5        30.34R
PIERRE         CLEAR     35  29  78 N8        30.36R WCI  29
SIOUX FALLS    CLOUDY    46  36  68 N13       30.29R
$$

...OBSERVATIONS ACROSS THE CENTRAL AND SOUTHERN PLAINS...

CITY           SKY/WX    TMP DP  RH WIND       PRES   REMARKS
OMAHA          LGT RAIN  52  47  83 N14       30.19S
GRAND ISLAND   LGT RAIN  44  42  93 N22G29    30.29R FOG
KANSAS CITY    CLOUDY    60  45  57 NW22G28   30.13S
WICHITA        CLOUDY    53  47  79 NW18      30.20R
DODGE CITY     LGT RAIN  43  39  86 N22G30    30.28R FOG
OKLAHOMA CITY  CLOUDY    65  47  52 N17G23    30.12R
DALLAS         CLOUDY    73  49  42 E3        30.04R
AMARILLO       CLOUDY    44  37  76 N30G37    30.26R
$$




USA.gov is the U.S. government's official web portal to all federal, state and local government web resources and services.